HISPASAT 30W-6

Last updated on Thu Sep 24 2026 00:03:19 GMT+0000 (Coordinated Universal Time)

1 43228U 18023A 26266.33637929 -.00000218 00000+0 00000+0 0 9997 2 43228 0.0502 31.0355 0003089 118.5174 303.7478 1.00272524 31393
UTC large
Height (km)
Speed (km/s)
/
Latitude / Longitude
Inclination (degrees)
Orbital Period (minutes)
Azimuth
Elevation
Range (km)
Doppler Factor

Next 0 passes for location: London (51.5072 / 0.1276)

No passes found over London.
HISPASAT 30W-6